Date String (YYYY-MM-DD hh:mm:ss) UTC,Instrument flags,Ambient pressure (hPa),Sample flow (lpm),Bypass flow (lpm),Sample temperature (°C),Ambient temperature (°C),ASC tube jacket temperature (°C),LED temperature (°C),Box temperature (°C),Sample RH (%),Span deviation,Mass concentration (μg/m³),Mass concentration (μg/m³),Mass concentration (μg/m³)
DateTimeUTC,F1_M11,P_M11,Q1_M11,Q2_M11,T1_M11,T2_M11,T3_M11,T4_M11,T5_M11,U1_M11,ZSPAN_M11,X0_M11,X2_M11,X1_M11
2022-03-14 09:00:00,,0823.1,5.01,0.00,25.1,24.2,00.0,34.2,26.9,07.9,0000.0,0002.66,0001.21,0000.51
2022-03-14 09:01:00,,0823.1,4.98,0.00,25.1,24.2,00.0,34.2,26.9,07.9,0000.0,0002.78,0001.24,0000.51
2022-03-14 09:02:00,,0823.1,5.01,0.00,25.1,24.2,00.0,34.2,26.9,07.9,0000.0,0002.93,0001.28,0000.52
2022-03-14 09:03:00,,0823.1,5.00,0.00,25.1,24.2,00.0,34.2,26.9,07.9,0000.0,0002.98,0001.30,0000.53
2022-03-14 09:04:00,,0823.1,5.00,0.00,25.1,24.2,00.0,34.2,26.9,07.9,0000.0,0003.04,0001.31,0000.53
2022-03-14 09:05:00,,0823.1,5.01,0.00,25.1,24.2,00.0,34.2,26.8,07.9,0000.0,0003.15,0001.28,0000.53
2022-03-14 09:06:00,,0823.1,5.00,0.00,25.1,24.2,00.0,34.2,26.9,08.0,0000.0,0003.16,0001.27,0000.53
2022-03-14 09:07:00,,0823.1,4.98,0.00,25.1,24.2,00.0,34.2,26.8,08.0,0000.0,0003.11,0001.27,0000.53
2022-03-14 09:08:00,,0823.1,5.00,0.00,25.1,24.2,00.0,34.2,26.9,07.9,0000.0,0003.31,0001.32,0000.54
2022-03-14 09:09:00,,0823.1,5.00,0.00,25.1,24.2,00.0,34.1,26.9,07.9,0000.0,0003.35,0001.31,0000.54
2022-03-14 09:10:00,,0823.1,5.01,0.00,25.1,24.2,00.0,34.1,26.9,07.9,0000.0,0003.34,0001.28,0000.53
2022-03-14 09:11:00,,0823.2,5.00,0.00,25.1,24.2,00.0,34.1,26.9,08.0,0000.0,0003.37,0001.28,0000.53
2022-03-14 09:12:00,,0823.2,5.00,0.00,25.1,24.3,00.0,34.1,26.9,08.0,0000.0,0003.31,0001.22,0000.52
2022-03-14 09:13:00,,0823.2,5.00,0.00,25.1,24.3,00.0,34.1,26.9,08.0,0000.0,0003.20,0001.18,0000.51
2022-03-14 09:14:00,,0823.2,4.99,0.00,25.1,24.2,00.0,34.1,26.9,08.1,0000.0,0003.14,0001.15,0000.51
2022-03-14 09:15:00,,0823.2,5.00,0.00,25.1,24.2,00.0,34.1,26.9,08.1,0000.0,0003.11,0001.13,0000.50
2022-03-14 09:16:00,,0823.2,5.02,0.00,25.1,24.2,00.0,34.1,26.8,08.0,0000.0,0002.96,0001.10,0000.49
2022-03-14 09:17:00,,0823.2,5.00,0.00,25.1,24.2,00.0,34.1,26.8,07.9,0000.0,0002.89,0001.09,0000.49
2022-03-14 09:18:00,,0823.2,5.00,0.00,25.1,24.2,00.0,34.1,26.9,07.9,0000.0,0002.81,0001.06,0000.48
2022-03-14 09:19:00,,0823.3,4.98,0.00,25.1,24.2,00.0,34.1,26.8,07.9,0000.0,0002.72,0001.03,0000.48
2022-03-14 09:20:00,,0823.2,5.00,0.00,25.1,24.2,00.0,34.1,26.8,07.9,0000.0,0002.87,0001.10,0000.49
2022-03-14 09:21:00,,0823.3,5.01,0.00,25.1,24.2,00.0,34.1,26.8,08.0,0000.0,0002.91,0001.12,0000.50
2022-03-14 09:22:00,,0823.3,5.00,0.00,25.1,24.2,00.0,34.1,26.8,08.1,0000.0,0002.91,0001.13,0000.50
2022-03-14 09:23:00,,0823.3,5.01,0.00,25.1,24.2,00.0,34.1,26.8,08.1,0000.0,0002.85,0001.16,0000.51
2022-03-14 09:24:00,,0823.4,5.01,0.00,25.1,24.2,00.0,34.1,26.8,08.1,0000.0,0002.98,0001.18,0000.51
2022-03-14 09:25:00,,0823.4,4.99,0.00,25.1,24.2,00.0,34.1,26.8,08.1,0000.0,0003.08,0001.19,0000.51
2022-03-14 09:26:00,,0823.4,5.00,0.00,25.1,24.2,00.0,34.1,26.8,08.0,0000.0,0002.92,0001.14,0000.51
2022-03-14 09:27:00,,0823.4,5.01,0.00,25.1,24.2,00.0,34.1,26.8,08.0,0000.0,0002.78,0001.13,0000.52
2022-03-14 09:28:00,,0823.4,5.00,0.00,25.1,24.2,00.0,34.1,26.8,08.0,0000.0,0002.75,0001.13,0000.53
2022-03-14 09:29:00,,0823.3,5.00,0.00,25.1,24.2,00.0,34.1,26.8,08.0,0000.0,0002.67,0001.13,0000.53
2022-03-14 09:30:00,,0823.3,5.00,0.00,25.1,24.2,00.0,34.1,26.8,08.0,0000.0,0002.53,0001.11,0000.53
2022-03-14 09:31:00,,0823.3,5.00,0.00,25.1,24.2,00.0,34.1,26.8,08.0,0000.0,0002.33,0001.02,0000.52
2022-03-14 09:32:00,,0823.4,5.00,0.00,25.1,24.2,00.0,34.1,26.8,08.0,0000.0,0002.34,0001.03,0000.51
2022-03-14 09:33:00,,0823.4,5.00,0.00,25.1,24.2,00.0,34.0,26.8,07.9,0000.0,0002.27,0001.00,0000.51
2022-03-14 09:34:00,,0823.4,5.01,0.00,25.0,24.1,00.0,34.0,26.8,07.8,0000.0,0003.24,0001.02,0000.51
2022-03-14 09:35:00,,0823.4,5.00,0.00,25.0,24.1,00.0,34.0,26.8,07.8,0000.0,0003.41,0001.02,0000.51
2022-03-14 09:36:00,,0823.4,5.01,0.00,25.0,24.1,00.0,34.0,26.8,07.8,0000.0,0003.22,0001.01,0000.51
2022-03-14 09:37:00,,0823.4,4.99,0.00,25.0,24.1,00.0,34.0,26.8,07.8,0000.0,0003.37,0001.06,0000.52
2022-03-14 09:38:00,,0823.4,4.99,0.00,25.0,24.1,00.0,34.0,26.8,07.8,0000.0,0003.45,0001.09,0000.51
2022-03-14 09:39:00,,0823.4,5.00,0.00,25.0,24.1,00.0,34.0,26.8,07.8,0000.0,0003.50,0001.10,0000.51
2022-03-14 09:40:00,,0823.4,5.00,0.00,25.0,24.1,00.0,34.0,26.7,07.8,0000.0,0003.65,0001.15,0000.51
2022-03-14 09:41:00,,0823.4,5.00,0.00,25.0,24.1,00.0,34.0,26.8,07.8,0000.0,0003.84,0001.21,0000.52
2022-03-14 09:42:00,,0823.4,5.00,0.00,25.0,24.1,00.0,34.0,26.8,07.8,0000.0,0003.93,0001.25,0000.52
2022-03-14 09:43:00,,0823.4,5.01,0.00,25.0,24.1,00.0,34.0,26.8,07.8,0000.0,0003.86,0001.25,0000.53
2022-03-14 09:44:00,,0823.4,5.00,0.00,25.0,24.1,00.0,34.0,26.8,07.9,0000.0,0003.79,0001.24,0000.54
2022-03-14 09:45:00,,0823.5,5.00,0.00,25.0,24.1,00.0,34.0,26.8,07.9,0000.0,0002.99,0001.27,0000.54
2022-03-14 09:46:00,,0823.5,4.98,0.00,25.0,24.1,00.0,34.0,26.8,07.8,0000.0,0002.86,0001.32,0000.54
2022-03-14 09:47:00,,0823.5,5.00,0.00,25.0,24.1,00.0,34.0,26.8,07.8,0000.0,0003.00,0001.36,0000.54
2022-03-14 09:48:00,,0823.6,5.00,0.00,25.0,24.2,00.0,34.0,26.8,07.8,0000.0,0003.09,0001.37,0000.55
2022-03-14 09:49:00,,0823.6,5.00,0.00,25.0,24.2,00.0,34.0,26.8,07.8,0000.0,0003.04,0001.33,0000.55
2022-03-14 09:50:00,,0823.6,5.00,0.00,25.0,24.1,00.0,34.0,26.8,07.8,0000.0,0003.01,0001.29,0000.55
2022-03-14 09:51:00,,0823.6,5.00,0.00,25.0,24.1,00.0,34.0,26.8,07.8,0000.0,0003.00,0001.29,0000.56
2022-03-14 09:52:00,,0823.7,5.01,0.00,25.0,24.1,00.0,34.0,26.8,07.8,0000.0,0002.97,0001.28,0000.55
2022-03-14 09:53:00,,0823.7,5.01,0.00,25.0,24.1,00.0,34.0,26.8,07.8,0000.0,0002.78,0001.22,0000.55
2022-03-14 09:54:00,,0823.7,5.00,0.00,25.0,24.1,00.0,34.0,26.8,07.8,0000.0,0002.71,0001.19,0000.54
2022-03-14 09:55:00,,0823.7,4.99,0.00,25.0,24.1,00.0,34.0,26.8,07.8,0000.0,0002.81,0001.23,0000.54
2022-03-14 09:56:00,,0823.6,5.00,0.00,25.0,24.1,00.0,34.0,26.8,07.9,0000.0,0002.76,0001.22,0000.54
2022-03-14 09:57:00,,0823.7,5.00,0.00,25.0,24.1,00.0,34.0,26.8,07.8,0000.0,0002.61,0001.16,0000.54
2022-03-14 09:58:00,,0823.7,5.01,0.00,25.0,24.1,00.0,34.0,26.8,07.9,0000.0,0002.59,0001.11,0000.54
2022-03-14 09:59:00,,0823.7,5.00,0.00,25.0,24.1,00.0,34.0,26.8,07.8,0000.0,0002.56,0001.08,0000.54
